Location: Black Skies Observatory
(44.7549°N, 79.7179°W)
Time: 14:36:56
(UTC-05:00)

Envisat - Pass Details

Date: 04 November 2020
Orbit: 764 x 766 km, 98.1° (Epoch: 01 December)

Event Time Altitude Azimuth Distance (km) Brightness Sun altitude
Rises 05:22:52 0° 24° (NNE) 3,241 6.5 -17.9°
Reaches altitude 10° 05:25:34 10° 38° (NE) 2,309 5.9 -17.4°
Maximum altitude 05:29:46 25° 93° (E) 1,495 5.4 -16.6°
Drops below altitude 10° 05:33:55 10° 149° (SSE) 2,294 6.0 -15.9°
Sets 05:36:35 0° 162° (SSE) 3,215 6.6 -15.4°
